Weather History for Denali Park, AK

Change the Weather History Date:

Sunday, December 30, 2012

  Actual Average Record
Temperature  
Mean Temperature 37 °F -  
Max Temperature 44 °F 13 °F 44 °F (2012)
Min Temperature 30 °F -2 °F -45 °F (1999)
Degree Days  
Heating Degree Days 28    
Moisture  
Dew Point 24 °F    
Average Humidity 53    
Maximum Humidity 75    
Minimum Humidity 42    
Precipitation  
Precipitation 0.00 in - - ()
Sea Level Pressure  
Sea Level Pressure 29.16 in    
Wind  
Wind Speed 7 mph (South)    
Max Wind Speed 20 mph    
Max Gust Speed 34 mph    
Visibility 10 miles    
Events      
Averages and records for this station are not official NWS values.
T = Trace of Precipitation, MM = Missing Value Source: NWS Daily Summary

Daily Weather History Graph

Daily Weather History Graph

Search for Another Location

Airport:

Trip Planner

Search our weather history database for the weather conditions in past years. The results will help you decide how hot, cold, wet, or windy it might be!

Date:

Astronomy

Dec. 30, 2012 Rise Set
Actual Time 10:42 AM AKST 3:15 PM AKST
Civil Twilight 9:28 AM AKST 4:29 PM AKST
Nautical Twilight 8:21 AM AKST 5:36 PM AKST
Astronomical Twilight 7:22 AM AKST 6:34 PM AKST
Moon 7:12 PM AKST 10:46 AM AKST
Length of Visible Light 7h 01m
Length of Day
4h 32m
Waning Gibbous, 94% of the Moon is Illuminated
Dec 30
Waning Gibbous
Jan 4
Last Quarter
Jan 11
New
Jan 18
First Quarter
Jan 26
Full

Hourly Weather History & Observations

Time (AKST) Temp. Windchill Dew Point Humidity Pressure Visibility Wind Dir Wind Speed Gust Speed Precip Events Conditions
12:16 AM 33.8 °F - 21.2 °F 60% 29.35 in 10.0 mi Calm Calm - N/A   Clear
12:36 AM 33.8 °F 30.8 °F 21.2 °F 60% 29.33 in 10.0 mi WSW 3.5 mph - N/A   Clear
12:56 AM 33.8 °F 30.8 °F 21.2 °F 60% 29.33 in 10.0 mi WSW 3.5 mph - N/A   Clear
1:16 AM 33.8 °F - 21.2 °F 60% 29.32 in 10.0 mi Calm Calm - N/A   Clear
1:36 AM 32.0 °F - 21.2 °F 64% 29.31 in 10.0 mi Calm Calm - N/A   Clear
1:56 AM 30.2 °F - 23.0 °F 75% 29.30 in 10.0 mi Calm Calm - N/A   Clear
2:16 AM 30.2 °F 25.4 °F 23.0 °F 75% 29.29 in 10.0 mi SW 4.6 mph - N/A   Scattered Clouds
2:36 AM 30.2 °F - 23.0 °F 75% 29.28 in 10.0 mi Calm Calm - N/A   Mostly Cloudy
3:16 AM 33.8 °F - 21.2 °F 60% 29.25 in 10.0 mi Calm Calm - N/A   Mostly Cloudy
3:36 AM 35.6 °F - 23.0 °F 60% 29.23 in 10.0 mi Calm Calm - N/A   Scattered Clouds
3:56 AM 33.8 °F - 24.8 °F 70% 29.23 in 10.0 mi Calm Calm - N/A   Scattered Clouds
4:16 AM 35.6 °F 29.2 °F 26.6 °F 70% 29.21 in 10.0 mi SW 8.1 mph - N/A   Mostly Cloudy
4:36 AM 42.8 °F 37.0 °F 26.6 °F 53% 29.19 in 10.0 mi SSW 10.4 mph - N/A   Mostly Cloudy
4:56 AM 42.8 °F 38.0 °F 26.6 °F 53% 29.18 in 10.0 mi SSW 8.1 mph - N/A   Mostly Cloudy
5:16 AM 42.8 °F 38.0 °F 26.6 °F 53% 29.17 in 10.0 mi SW 8.1 mph 16.1 mph N/A   Scattered Clouds
5:36 AM 42.8 °F 38.6 °F 26.6 °F 53% 29.16 in 10.0 mi SW 6.9 mph 17.3 mph N/A   Mostly Cloudy
5:56 AM 42.8 °F 38.0 °F 26.6 °F 53% 29.15 in 10.0 mi SW 8.1 mph - N/A   Overcast
6:16 AM 42.8 °F 39.3 °F 26.6 °F 53% 29.14 in 10.0 mi SSW 5.8 mph - N/A   Overcast
6:36 AM 42.8 °F - 26.6 °F 53% 29.13 in 10.0 mi Calm Calm - N/A   Overcast
6:56 AM 42.8 °F - 24.8 °F 49% 29.13 in 10.0 mi Calm Calm - N/A   Overcast
7:16 AM 42.8 °F 41.1 °F 24.8 °F 49% 29.11 in 10.0 mi South 3.5 mph - N/A   Overcast
7:36 AM 44.6 °F 39.2 °F 24.8 °F 46% 29.10 in 10.0 mi South 10.4 mph 21.9 mph N/A   Overcast
7:56 AM 44.6 °F 39.2 °F 26.6 °F 49% 29.09 in 10.0 mi South 10.4 mph 18.4 mph N/A   Mostly Cloudy
8:16 AM 44.6 °F 39.7 °F 26.6 °F 49% 29.08 in 10.0 mi SSW 9.2 mph 23.0 mph N/A   Mostly Cloudy
8:36 AM 44.6 °F 40.2 °F 26.6 °F 49% 29.08 in 10.0 mi South 8.1 mph 25.3 mph N/A   Partly Cloudy
8:56 AM 44.6 °F 37.4 °F 26.6 °F 49% 29.09 in 10.0 mi South 16.1 mph 26.5 mph N/A   Clear
9:16 AM 44.6 °F 38.8 °F 26.6 °F 49% 29.10 in 10.0 mi South 11.5 mph 27.6 mph N/A   Partly Cloudy
9:36 AM 44.6 °F 38.1 °F 26.6 °F 49% 29.09 in 10.0 mi SSE 13.8 mph 24.2 mph N/A   Partly Cloudy
9:56 AM 44.6 °F 39.2 °F 24.8 °F 46% 29.10 in 10.0 mi South 10.4 mph 21.9 mph N/A   Clear
10:16 AM 44.6 °F 37.8 °F 24.8 °F 46% 29.10 in 10.0 mi South 15.0 mph 19.6 mph N/A   Partly Cloudy
10:36 AM 42.8 °F 37.5 °F 26.6 °F 53% 29.10 in 10.0 mi South 9.2 mph 20.7 mph N/A   Clear
10:56 AM 44.6 °F 39.2 °F 26.6 °F 49% 29.11 in 10.0 mi South 10.4 mph 18.4 mph N/A   Scattered Clouds
11:16 AM 44.6 °F 39.7 °F 24.8 °F 46% 29.10 in 10.0 mi South 9.2 mph 20.7 mph N/A   Overcast
11:36 AM 44.6 °F 40.2 °F 24.8 °F 46% 29.09 in 10.0 mi South 8.1 mph 18.4 mph N/A   Overcast
11:56 AM 44.6 °F 38.4 °F 24.8 °F 46% 29.10 in 10.0 mi South 12.7 mph 21.9 mph N/A   Overcast
12:16 PM 44.6 °F 39.2 °F 24.8 °F 46% 29.09 in 10.0 mi South 10.4 mph 19.6 mph N/A   Overcast
12:36 PM 44.6 °F 37.8 °F 24.8 °F 46% 29.09 in 10.0 mi South 15.0 mph 23.0 mph N/A   Overcast
12:56 PM 44.6 °F 37.8 °F 24.8 °F 46% 29.10 in 10.0 mi South 15.0 mph 26.5 mph N/A   Overcast
1:16 PM 44.6 °F 36.6 °F 24.8 °F 46% 29.08 in 10.0 mi SSW 19.6 mph 27.6 mph N/A   Mostly Cloudy
1:36 PM 44.6 °F 37.8 °F 24.8 °F 46% 29.04 in 10.0 mi SSE 15.0 mph 27.6 mph N/A   Scattered Clouds
1:56 PM 42.8 °F 35.1 °F 24.8 °F 49% 29.02 in 10.0 mi South 16.1 mph 28.8 mph N/A   Clear
2:16 PM 42.8 °F 35.1 °F 24.8 °F 49% 29.06 in 10.0 mi SSW 16.1 mph 33.4 mph N/A   Partly Cloudy
2:36 PM 42.8 °F 35.8 °F 24.8 °F 49% 29.07 in 10.0 mi South 13.8 mph 31.1 mph N/A   Partly Cloudy
2:56 PM 42.8 °F 35.1 °F 24.8 °F 49% 29.07 in 10.0 mi SSW 16.1 mph 28.8 mph N/A   Mostly Cloudy
3:16 PM 42.8 °F 36.6 °F 23.0 °F 46% 29.09 in 10.0 mi South 11.5 mph 25.3 mph N/A   Partly Cloudy
3:36 PM 42.8 °F 36.2 °F 23.0 °F 46% 29.08 in 10.0 mi South 12.7 mph 26.5 mph N/A   Clear
3:56 PM 42.8 °F 34.8 °F 23.0 °F 46% 29.08 in 10.0 mi South 17.3 mph 31.1 mph N/A   Clear
4:16 PM 42.8 °F 35.8 °F 23.0 °F 46% 29.07 in 10.0 mi South 13.8 mph 25.3 mph N/A   Partly Cloudy
4:36 PM 42.8 °F 36.2 °F 21.2 °F 42% 29.11 in 10.0 mi South 12.7 mph 34.5 mph N/A   Scattered Clouds
4:56 PM 42.8 °F 38.0 °F 21.2 °F 42% 29.12 in 10.0 mi South 8.1 mph 21.9 mph N/A   Scattered Clouds
5:16 PM 41.0 °F 34.7 °F 21.2 °F 45% 29.12 in 10.0 mi South 10.4 mph 21.9 mph N/A   Overcast
5:36 PM 41.0 °F 33.9 °F 21.2 °F 45% 29.12 in 10.0 mi South 12.7 mph 23.0 mph N/A   Overcast
5:56 PM 39.2 °F 31.6 °F 23.0 °F 52% 29.13 in 10.0 mi South 12.7 mph 23.0 mph N/A   Overcast
6:16 PM 39.2 °F 32.5 °F 23.0 °F 52% 29.14 in 10.0 mi South 10.4 mph 20.7 mph N/A   Mostly Cloudy
6:36 PM 39.2 °F 33.0 °F 23.0 °F 52% 29.15 in 10.0 mi South 9.2 mph 18.4 mph N/A   Mostly Cloudy
6:56 PM 39.2 °F 33.6 °F 23.0 °F 52% 29.17 in 10.0 mi South 8.1 mph 19.6 mph N/A   Overcast
7:16 PM 39.2 °F 34.2 °F 23.0 °F 52% 29.17 in 10.0 mi SSE 6.9 mph 19.6 mph N/A   Overcast
7:36 PM 39.2 °F 33.6 °F 23.0 °F 52% 29.18 in 10.0 mi South 8.1 mph - N/A   Overcast
7:56 PM 39.2 °F 33.6 °F 23.0 °F 52% 29.18 in 10.0 mi SE 8.1 mph 19.6 mph N/A   Overcast
8:16 PM 39.2 °F 31.6 °F 24.8 °F 56% 29.18 in 10.0 mi South 12.7 mph 20.7 mph N/A   Overcast
8:36 PM 39.2 °F 32.0 °F 24.8 °F 56% 29.18 in 10.0 mi SSE 11.5 mph 20.7 mph N/A   Overcast
8:56 PM 37.4 °F 31.4 °F 24.8 °F 60% 29.19 in 10.0 mi South 8.1 mph 25.3 mph N/A   Overcast
9:16 PM 37.4 °F 32.8 °F 24.8 °F 60% 29.20 in 10.0 mi South 5.8 mph 19.6 mph N/A   Mostly Cloudy
9:36 PM 37.4 °F 32.1 °F 24.8 °F 60% 29.21 in 10.0 mi South 6.9 mph - N/A   Mostly Cloudy
9:56 PM 37.4 °F 31.4 °F 24.8 °F 60% 29.23 in 10.0 mi SSE 8.1 mph - N/A   Mostly Cloudy
10:16 PM 37.4 °F 30.8 °F 24.8 °F 60% 29.24 in 10.0 mi South 9.2 mph - N/A   Mostly Cloudy
10:36 PM 37.4 °F 32.1 °F 24.8 °F 60% 29.24 in 10.0 mi South 6.9 mph - N/A   Mostly Cloudy
10:56 PM 37.4 °F 32.1 °F 24.8 °F 60% 29.24 in 10.0 mi South 6.9 mph - N/A   Overcast
11:16 PM 37.4 °F 30.8 °F 23.0 °F 56% 29.24 in 10.0 mi South 9.2 mph 20.7 mph N/A   Mostly Cloudy
11:36 PM 37.4 °F 30.8 °F 23.0 °F 56% 29.25 in 10.0 mi South 9.2 mph 16.1 mph N/A   Mostly Cloudy
11:56 PM 39.2 °F 32.5 °F 23.0 °F 52% 29.27 in 10.0 mi South 10.4 mph 16.1 mph N/A   Overcast